| time (UTC) | temp F | wind direction | speed MPH | gust MPH | rain 1hr in | rain 24hr in | rain mn in | humidity % | barometer mb |
| 20260508070602 | 60 | 0 | 0.0 | 0.0 | 0.00 | 2.34 | 0.00 | 97 | 1015.6 |
| 20260508070101 | 60 | 0 | 0.0 | 0.0 | 0.00 | 2.34 | 0.00 | 97 | 1015.5 |
| 20260508065558 | 60 | 0 | 0.0 | 0.0 | 0.00 | 2.34 | 0.00 | 97 | 1015.6 |
| 20260508065056 | 60 | 0 | 0.0 | 0.0 | 0.00 | 2.34 | 0.00 | 97 | 1015.4 |
| 20260508064559 | 60 | 0 | 0.0 | 0.0 | 0.00 | 2.34 | 0.00 | 97 | 1015.3 |
| 20260508064056 | 60 | 0 | 0.0 | 1.0 | 0.00 | 2.34 | 0.00 | 97 | 1015.2 |
| 20260508063558 | 61 | 0 | 0.0 | 1.0 | 0.00 | 2.34 | 0.00 | 97 | 1015.3 |
| 20260508063104 | 61 | 0 | 0.0 | 1.0 | 0.00 | 2.34 | 0.00 | 97 | 1015.3 |
| 20260508062600 | 61 | 0 | 0.0 | 1.0 | 0.00 | 2.34 | 0.00 | 97 | 1015.5 |
| 20260508062058 | 61 | 0 | 0.0 | 1.0 | 0.00 | 2.34 | 0.00 | 97 | 1015.6 |
| 20260508061559 | 61 | 0 | 0.0 | 0.0 | 0.00 | 2.34 | 0.00 | 97 | 1015.6 |
| 20260508061059 | 61 | 0 | 0.0 | 1.0 | 0.00 | 2.34 | 0.00 | 96 | 1015.4 |
| 20260508060559 | 61 | 0 | 0.0 | 1.0 | 0.00 | 2.34 | 0.00 | 96 | 1015.3 |
| 20260508060056 | 61 | 0 | 0.0 | 1.0 | 0.00 | 2.34 | 0.00 | 96 | 1015.3 |
| 20260508055558 | 61 | 0 | 0.0 | 1.0 | 0.00 | 2.34 | 0.00 | 96 | 1015.4 |
| 20260508055059 | 62 | 0 | 0.0 | 1.0 | 0.00 | 2.34 | 0.00 | 96 | 1015.7 |
| 20260508054600 | 62 | 0 | 0.0 | 1.0 | 0.00 | 2.34 | 0.00 | 96 | 1015.7 |
| 20260508054058 | 62 | 0 | 0.0 | 1.0 | 0.00 | 2.34 | 0.00 | 96 | 1015.7 |
| 20260508053558 | 62 | 0 | 0.0 | 1.0 | 0.00 | 2.34 | 0.00 | 96 | 1015.5 |
| 20260508053107 | 62 | 0 | 0.0 | 1.0 | 0.00 | 2.34 | 0.00 | 96 | 1015.5 |
| 20260508052557 | 62 | 0 | 0.0 | 2.0 | 0.00 | 2.34 | 0.00 | 96 | 1015.6 |
| 20260508052101 | 62 | 353 | 0.0 | 2.0 | 0.00 | 2.34 | 0.00 | 96 | 1015.5 |
| 20260508051556 | 62 | 0 | 0.0 | 1.0 | 0.00 | 2.34 | 0.00 | 96 | 1015.6 |
| 20260508051058 | 62 | 0 | 0.0 | 1.0 | 0.00 | 2.34 | 0.00 | 96 | 1015.6 |
| 20260508050557 | 62 | 349 | 0.0 | 2.0 | 0.00 | 2.34 | 0.00 | 95 | 1015.8 |
| 20260508050103 | 62 | 0 | 0.0 | 2.0 | 0.00 | 2.34 | 0.00 | 95 | 1015.9 |
| 20260508045557 | 62 | 352 | 0.0 | 1.0 | 0.00 | 2.34 | 2.34 | 95 | 1016.0 |
| 20260508045057 | 62 | 352 | 0.0 | 1.0 | 0.00 | 2.34 | 2.34 | 95 | 1016.1 |
| 20260508044558 | 62 | 0 | 0.0 | 1.0 | 0.00 | 2.34 | 2.34 | 95 | 1016.2 |
| 20260508044101 | 62 | 0 | 0.0 | 0.0 | 0.00 | 2.34 | 2.34 | 95 | 1016.0 |
| 20260508043558 | 62 | 0 | 0.0 | 0.0 | 0.00 | 2.34 | 2.34 | 95 | 1016.2 |
| 20260508043105 | 62 | 0 | 0.0 | 0.0 | 0.00 | 2.34 | 2.34 | 95 | 1016.1 |
| 20260508042558 | 63 | 0 | 0.0 | 0.0 | 0.00 | 2.34 | 2.34 | 95 | 1016.0 |
| 20260508042059 | 63 | 0 | 0.0 | 1.0 | 0.00 | 2.34 | 2.34 | 95 | 1016.0 |
| 20260508041601 | 63 | 0 | 0.0 | 1.0 | 0.00 | 2.34 | 2.34 | 95 | 1016.0 |
| 20260508041058 | 63 | 0 | 0.0 | 2.0 | 0.00 | 2.34 | 2.34 | 95 | 1016.1 |
| 20260508040559 | 63 | 342 | 0.0 | 2.0 | 0.00 | 2.34 | 2.34 | 95 | 1016.3 |
| 20260508040057 | 63 | 342 | 0.0 | 1.0 | 0.00 | 2.34 | 2.34 | 95 | 1016.1 |
| 20260508035600 | 63 | 330 | 0.0 | 1.0 | 0.00 | 2.34 | 2.34 | 95 | 1016.3 |
| 20260508035058 | 63 | 326 | 0.0 | 1.0 | 0.00 | 2.34 | 2.34 | 95 | 1016.4 |
| 20260508034610 | 63 | 0 | 0.0 | 1.0 | 0.00 | 2.34 | 2.34 | 95 | 1016.4 |
| 20260508034057 | 63 | 0 | 0.0 | 2.0 | 0.00 | 2.34 | 2.34 | 95 | 1016.6 |
| 20260508033559 | 63 | 0 | 0.0 | 2.0 | 0.00 | 2.34 | 2.34 | 95 | 1016.6 |
| 20260508033057 | 63 | 307 | 0.0 | 1.0 | 0.00 | 2.34 | 2.34 | 94 | 1016.6 |
| 20260508032558 | 63 | 0 | 0.0 | 1.0 | 0.00 | 2.34 | 2.34 | 94 | 1016.7 |
| 20260508032057 | 64 | 349 | 0.0 | 1.0 | 0.00 | 2.34 | 2.34 | 94 | 1016.6 |
| 20260508031559 | 64 | 352 | 0.0 | 2.0 | 0.00 | 2.34 | 2.34 | 94 | 1016.4 |
| 20260508031059 | 64 | 350 | 0.0 | 2.0 | 0.00 | 2.34 | 2.34 | 94 | 1016.1 |
| 20260508030556 | 64 | 8 | 1.0 | 2.0 | 0.00 | 2.34 | 2.34 | 93 | 1016.0 |
| 20260508030059 | 64 | 28 | 1.0 | 3.0 | 0.00 | 2.34 | 2.34 | 93 | 1016.1 |
| 20260508025558 | 64 | 336 | 0.0 | 3.0 | 0.00 | 2.34 | 2.34 | 94 | 1016.1 |
| 20260508025058 | 64 | 0 | 0.0 | 3.0 | 0.00 | 2.34 | 2.34 | 93 | 1016.0 |
| 20260508024600 | 64 | 357 | 1.0 | 2.0 | 0.00 | 2.34 | 2.34 | 94 | 1015.9 |
| 20260508024059 | 64 | 48 | 1.0 | 2.0 | 0.00 | 2.34 | 2.34 | 94 | 1015.9 |
| 20260508023559 | 65 | 0 | 0.0 | 2.0 | 0.00 | 2.34 | 2.34 | 94 | 1015.8 |
| 20260508023100 | 65 | 360 | 1.0 | 2.0 | 0.00 | 2.34 | 2.34 | 94 | 1015.8 |
| 20260508022559 | 65 | 344 | 0.0 | 2.0 | 0.00 | 2.34 | 2.34 | 94 | 1015.7 |
| 20260508022059 | 65 | 350 | 1.0 | 2.0 | 0.00 | 2.34 | 2.34 | 93 | 1015.6 |
| 20260508021601 | 65 | 8 | 1.0 | 3.0 | 0.00 | 2.34 | 2.34 | 93 | 1015.5 |
| 20260508021058 | 65 | 353 | 0.0 | 3.0 | 0.00 | 2.34 | 2.34 | 93 | 1015.5 |
| 20260508020557 | 66 | 341 | 1.0 | 2.0 | 0.00 | 2.34 | 2.34 | 93 | 1015.5 |
| 20260508015557 | 66 | 1 | 1.0 | 2.0 | 0.00 | 2.34 | 2.34 | 93 | 1015.4 |
| 20260508015057 | 66 | 350 | 0.0 | 2.0 | 0.00 | 2.34 | 2.34 | 93 | 1015.3 |
| 20260508014559 | 66 | 350 | 0.0 | 2.0 | 0.00 | 2.34 | 2.34 | 93 | 1015.3 |
| 20260508014057 | 66 | 0 | 1.0 | 3.0 | 0.00 | 2.34 | 2.34 | 93 | 1015.4 |
| 20260508013557 | 66 | 349 | 1.0 | 3.0 | 0.00 | 2.34 | 2.34 | 93 | 1015.3 |
| 20260508013100 | 67 | 0 | 1.0 | 4.0 | 0.00 | 2.34 | 2.34 | 93 | 1015.3 |
| 20260508012556 | 67 | 344 | 1.0 | 4.0 | 0.00 | 2.34 | 2.34 | 93 | 1015.2 |
| 20260508012056 | 67 | 0 | 1.0 | 2.0 | 0.00 | 2.34 | 2.34 | 93 | 1015.2 |
| 20260508011604 | 67 | 347 | 0.0 | 2.0 | 0.00 | 2.34 | 2.34 | 92 | 1015.1 |
| 20260508011055 | 67 | 335 | 1.0 | 2.0 | 0.00 | 2.34 | 2.34 | 92 | 1015.1 |
| 20260508010555 | 67 | 3 | 1.0 | 2.0 | 0.00 | 2.34 | 2.34 | 92 | 1015.0 |
| 20260508010058 | 68 | 338 | 1.0 | 2.0 | 0.00 | 2.34 | 2.34 | 92 | 1015.1 |
| 20260508005600 | 68 | 352 | 1.0 | 2.0 | 0.00 | 2.34 | 2.34 | 92 | 1015.0 |
| 20260508005100 | 68 | 347 | 0.0 | 2.0 | 0.00 | 2.34 | 2.34 | 92 | 1015.1 |
| 20260508004557 | 68 | 341 | 0.0 | 2.0 | 0.00 | 2.34 | 2.34 | 91 | 1015.1 |
| 20260508004101 | 69 | 352 | 1.0 | 2.0 | 0.00 | 2.34 | 2.34 | 91 | 1015.0 |
| 20260508003558 | 69 | 359 | 1.0 | 2.0 | 0.00 | 2.34 | 2.34 | 91 | 1014.8 |
| 20260508003056 | 69 | 354 | 0.0 | 2.0 | 0.00 | 2.34 | 2.34 | 91 | 1014.8 |
| 20260508002558 | 69 | 352 | 1.0 | 2.0 | 0.00 | 2.34 | 2.34 | 90 | 1014.7 |
| 20260508002058 | 69 | 346 | 0.0 | 2.0 | 0.00 | 2.34 | 2.34 | 90 | 1014.9 |
| 20260508001617 | 70 | 348 | 1.0 | 2.0 | 0.00 | 2.34 | 2.34 | 90 | 1014.6 |
| 20260508001058 | 70 | 321 | 0.0 | 2.0 | 0.00 | 2.34 | 2.34 | 90 | 1014.6 |
| 20260508000558 | 70 | 0 | 0.0 | 2.0 | 0.00 | 2.34 | 2.34 | 90 | 1014.5 |
| 20260508000058 | 71 | 350 | 0.0 | 2.0 | 0.00 | 2.34 | 2.34 | 90 | 1014.6 |
| 20260507235600 | 71 | 291 | 0.0 | 2.0 | 0.00 | 2.35 | 2.34 | 89 | 1014.5 |
| 20260507235102 | 71 | 349 | 0.0 | 2.0 | 0.00 | 2.35 | 2.34 | 89 | 1014.5 |
| 20260507234602 | 71 | 0 | 0.0 | 2.0 | 0.00 | 2.35 | 2.34 | 89 | 1014.5 |
| 20260507234106 | 72 | 349 | 0.0 | 2.0 | 0.00 | 2.35 | 2.34 | 89 | 1014.3 |
| 20260507233556 | 72 | 334 | 0.0 | 2.0 | 0.00 | 2.35 | 2.34 | 89 | 1014.4 |
| 20260507233057 | 72 | 345 | 0.0 | 3.0 | 0.00 | 2.35 | 2.34 | 89 | 1014.3 |
| 20260507232555 | 72 | 0 | 0.0 | 3.0 | 0.00 | 2.35 | 2.34 | 88 | 1014.4 |
| 20260507232055 | 73 | 0 | 0.0 | 2.0 | 0.00 | 2.35 | 2.34 | 91 | 1014.3 |
| 20260507231557 | 73 | 0 | 0.0 | 2.0 | 0.00 | 2.35 | 2.34 | 88 | 1014.3 |
| 20260507231056 | 73 | 0 | 0.0 | 2.0 | 0.00 | 2.35 | 2.34 | 88 | 1014.3 |
| 20260507230556 | 73 | 333 | 0.0 | 1.0 | 0.00 | 2.35 | 2.34 | 88 | 1014.2 |
| 20260507230058 | 73 | 0 | 0.0 | 1.0 | 0.00 | 2.35 | 2.34 | 88 | 1014.2 |
| 20260507225555 | 74 | 291 | 0.0 | 1.0 | 0.00 | 2.35 | 2.34 | 87 | 1014.2 |
| 20260507225058 | 74 | 0 | 0.0 | 1.0 | 0.00 | 2.35 | 2.34 | 87 | 1014.1 |
| 20260507224601 | 74 | 0 | 0.0 | 1.0 | 0.00 | 2.35 | 2.34 | 87 | 1014.1 |
| 20260507224055 | 74 | 342 | 0.0 | 1.0 | 0.00 | 2.35 | 2.34 | 87 | 1014.1 |
| 20260507223557 | 75 | 0 | 0.0 | 1.0 | 0.00 | 2.35 | 2.34 | 86 | 1014.1 |
| 20260507223101 | 75 | 0 | 0.0 | 2.0 | 0.00 | 2.35 | 2.34 | 86 | 1014.0 |
| 20260507222556 | 75 | 0 | 0.0 | 2.0 | 0.00 | 2.35 | 2.34 | 85 | 1014.0 |
| 20260507222058 | 75 | 355 | 0.0 | 2.0 | 0.00 | 2.35 | 2.34 | 84 | 1014.1 |
| 20260507221555 | 76 | 0 | 0.0 | 1.0 | 0.00 | 2.35 | 2.34 | 87 | 1014.0 |
| 20260507221056 | 76 | 0 | 0.0 | 1.0 | 0.00 | 2.35 | 2.34 | 88 | 1014.0 |
| 20260507220558 | 76 | 0 | 0.0 | 1.0 | 0.00 | 2.35 | 2.34 | 88 | 1013.9 |
| 20260507220056 | 76 | 0 | 0.0 | 1.0 | 0.00 | 2.35 | 2.34 | 89 | 1014.0 |
| 20260507215558 | 75 | 0 | 0.0 | 1.0 | 0.00 | 2.52 | 2.34 | 85 | 1014.0 |
| 20260507215057 | 75 | 0 | 0.0 | 2.0 | 0.00 | 2.52 | 2.34 | 85 | 1014.0 |
| 20260507214602 | 75 | 269 | 0.0 | 2.0 | 0.00 | 2.52 | 2.34 | 85 | 1014.1 |
| 20260507214056 | 75 | 0 | 0.0 | 1.0 | 0.00 | 2.52 | 2.34 | 85 | 1014.1 |
| 20260507213559 | 76 | 0 | 0.0 | 2.0 | 0.00 | 2.52 | 2.34 | 85 | 1014.1 |
| 20260507213057 | 76 | 0 | 0.0 | 2.0 | 0.00 | 2.52 | 2.34 | 86 | 1014.0 |
| 20260507212559 | 76 | 0 | 0.0 | 1.0 | 0.00 | 2.52 | 2.34 | 85 | 1014.0 |
| 20260507212055 | 76 | 0 | 0.0 | 2.0 | 0.00 | 2.52 | 2.34 | 88 | 1013.9 |
| 20260507211558 | 76 | 332 | 0.0 | 2.0 | 0.00 | 2.52 | 2.34 | 85 | 1013.9 |
| 20260507211058 | 76 | 0 | 0.0 | 3.0 | 0.00 | 2.52 | 2.34 | 85 | 1013.9 |
| 20260507210603 | 76 | 0 | 0.0 | 3.0 | 0.00 | 2.52 | 2.34 | 86 | 1013.8 |
| 20260507210058 | 76 | 353 | 0.0 | 3.0 | 0.00 | 2.52 | 2.34 | 86 | 1013.7 |
| 20260507205558 | 76 | 0 | 0.0 | 3.0 | 0.00 | 2.52 | 2.34 | 89 | 1013.7 |
| 20260507205058 | 76 | 352 | 0.0 | 2.0 | 0.00 | 2.52 | 2.34 | 89 | 1013.7 |
| 20260507204600 | 76 | 0 | 1.0 | 4.0 | 0.00 | 2.52 | 2.34 | 85 | 1013.8 |
| 20260507204058 | 77 | 0 | 0.0 | 4.0 | 0.00 | 2.52 | 2.34 | 86 | 1013.9 |
| 20260507203558 | 77 | 8 | 1.0 | 4.0 | 0.00 | 2.52 | 2.34 | 89 | 1013.7 |
| 20260507203103 | 77 | 348 | 1.0 | 4.0 | 0.00 | 2.52 | 2.34 | 86 | 1013.7 |
| 20260507202559 | 77 | 314 | 0.0 | 4.0 | 0.00 | 2.52 | 2.34 | 91 | 1013.6 |
| 20260507202058 | 76 | 0 | 0.0 | 4.0 | 0.00 | 2.52 | 2.34 | 91 | 1013.7 |
| 20260507201601 | 76 | 0 | 0.0 | 4.0 | 0.00 | 2.52 | 2.34 | 90 | 1013.7 |
| 20260507201058 | 76 | 320 | 0.0 | 4.0 | 0.00 | 2.52 | 2.34 | 89 | 1013.8 |
| 20260507200559 | 76 | 0 | 0.0 | 4.0 | 0.00 | 2.52 | 2.34 | 89 | 1013.8 |
| 20260507200108 | 76 | 296 | 1.0 | 6.0 | 0.00 | 2.52 | 2.34 | 90 | 1013.9 |
| 20260507195559 | 76 | 266 | 1.0 | 6.0 | 0.00 | 2.52 | 2.34 | 88 | 1013.8 |
| 20260507195058 | 76 | 64 | 3.0 | 5.0 | 0.00 | 2.52 | 2.34 | 90 | 1013.8 |
| 20260507194557 | 76 | 303 | 1.0 | 5.0 | 0.00 | 2.52 | 2.34 | 90 | 1013.8 |
| 20260507194058 | 76 | 278 | 1.0 | 6.0 | 0.00 | 2.52 | 2.34 | 88 | 1014.0 |
| 20260507193558 | 76 | 262 | 0.0 | 6.0 | 0.00 | 2.52 | 2.34 | 93 | 1014.0 |
| 20260507193058 | 75 | 271 | 2.0 | 6.0 | 0.00 | 2.52 | 2.34 | 92 | 1014.0 |
| 20260507192558 | 76 | 170 | 0.0 | 5.0 | 0.00 | 2.52 | 2.34 | 92 | 1013.9 |
| 20260507192101 | 75 | 235 | 1.0 | 5.0 | 0.00 | 2.52 | 2.34 | 90 | 1013.9 |
| 20260507191558 | 74 | 214 | 1.0 | 5.0 | 0.00 | 2.52 | 2.34 | 91 | 1014.0 |
| 20260507191059 | 74 | 220 | 1.0 | 4.0 | 0.00 | 2.52 | 2.34 | 95 | 1014.1 |
| 20260507190558 | 73 | 276 | 1.0 | 4.0 | 0.00 | 2.52 | 2.34 | 95 | 1014.0 |
| 20260507190057 | 73 | 251 | 0.0 | 4.0 | 0.00 | 2.52 | 2.34 | 95 | 1014.1 |
| 20260507185557 | 73 | 263 | 2.0 | 4.0 | 0.00 | 2.52 | 2.34 | 93 | 1014.2 |
| 20260507185058 | 72 | 235 | 0.0 | 4.0 | 0.00 | 2.52 | 2.34 | 95 | 1014.3 |
| 20260507184605 | 72 | 0 | 1.0 | 4.0 | 0.00 | 2.52 | 2.34 | 98 | 1014.3 |
| 20260507184058 | 72 | 266 | 0.0 | 3.0 | 0.00 | 2.52 | 2.34 | 95 | 1014.5 |
| 20260507183558 | 71 | 275 | 0.0 | 2.0 | 0.00 | 2.52 | 2.34 | 96 | 1014.5 |
| 20260507183059 | 71 | 338 | 0.0 | 2.0 | 0.00 | 2.52 | 2.34 | 96 | 1014.6 |
| 20260507182557 | 71 | 285 | 0.0 | 3.0 | 0.00 | 2.52 | 2.34 | 96 | 1014.6 |
| 20260507182058 | 71 | 264 | 0.0 | 3.0 | 0.00 | 2.52 | 2.34 | 96 | 1014.6 |
| 20260507181603 | 71 | 296 | 0.0 | 4.0 | 0.00 | 2.52 | 2.34 | 97 | 1014.6 |
| 20260507181057 | 71 | 300 | 1.0 | 4.0 | 0.00 | 2.52 | 2.34 | 96 | 1014.7 |
| 20260507180601 | 71 | 236 | 0.0 | 4.0 | 0.00 | 2.52 | 2.34 | 97 | 1015.1 |
| 20260507180057 | 71 | 278 | 0.0 | 4.0 | 0.00 | 2.52 | 2.34 | 97 | 1015.0 |
| 20260507175602 | 71 | 320 | 0.0 | 4.0 | 0.00 | 2.52 | 2.34 | 97 | 1015.0 |
| 20260507175056 | 71 | 247 | 1.0 | 2.0 | 0.00 | 2.52 | 2.34 | 97 | 1014.9 |
| 20260507174606 | 71 | 359 | 0.0 | 3.0 | 0.00 | 2.52 | 2.34 | 97 | 1015.0 |
| 20260507174059 | 71 | 325 | 0.0 | 3.0 | 0.00 | 2.52 | 2.34 | 97 | 1014.9 |
| 20260507173555 | 71 | 295 | 0.0 | 3.0 | 0.00 | 2.52 | 2.34 | 97 | 1014.8 |
| 20260507173058 | 71 | 339 | 0.0 | 3.0 | 0.00 | 2.52 | 2.34 | 97 | 1014.8 |
| 20260507172601 | 70 | 355 | 1.0 | 3.0 | 0.01 | 2.52 | 2.34 | 97 | 1014.9 |
| 20260507172058 | 71 | 350 | 0.0 | 3.0 | 0.01 | 2.52 | 2.34 | 97 | 1014.8 |
| 20260507171603 | 70 | 268 | 1.0 | 3.0 | 0.01 | 2.52 | 2.34 | 97 | 1014.8 |
| 20260507171058 | 70 | 349 | 0.0 | 2.0 | 0.01 | 2.52 | 2.34 | 97 | 1014.9 |
| 20260507170558 | 70 | 238 | 1.0 | 4.0 | 0.01 | 2.52 | 2.34 | 97 | 1014.8 |
| 20260507170059 | 70 | 302 | 0.0 | 4.0 | 0.01 | 2.52 | 2.34 | 97 | 1014.7 |
| 20260507165558 | 70 | 347 | 1.0 | 2.0 | 0.01 | 2.52 | 2.34 | 97 | 1014.9 |
| 20260507165058 | 70 | 266 | 0.0 | 3.0 | 0.01 | 2.52 | 2.34 | 97 | 1014.9 |
| 20260507164557 | 70 | 330 | 0.0 | 3.0 | 0.01 | 2.52 | 2.34 | 97 | 1014.9 |
| 20260507164100 | 70 | 349 | 1.0 | 3.0 | 0.01 | 2.52 | 2.34 | 97 | 1014.9 |
| 20260507163558 | 71 | 40 | 0.0 | 3.0 | 0.01 | 2.52 | 2.34 | 97 | 1015.0 |
| 20260507163059 | 71 | 319 | 1.0 | 3.0 | 0.01 | 2.52 | 2.34 | 97 | 1015.1 |
| 20260507162557 | 71 | 287 | 0.0 | 5.0 | 0.00 | 2.51 | 2.33 | 97 | 1015.1 |
| 20260507162058 | 71 | 233 | 0.0 | 5.0 | 0.00 | 2.51 | 2.33 | 97 | 1015.1 |
| 20260507161601 | 71 | 264 | 1.0 | 4.0 | 0.00 | 2.51 | 2.33 | 97 | 1015.1 |
| 20260507161057 | 71 | 231 | 1.0 | 5.0 | 0.00 | 2.51 | 2.33 | 97 | 1015.0 |
| 20260507160559 | 71 | 250 | 1.0 | 5.0 | 0.00 | 2.51 | 2.33 | 97 | 1015.1 |
| 20260507160058 | 70 | 0 | 1.0 | 3.0 | 0.00 | 2.51 | 2.33 | 97 | 1015.0 |
| 20260507155555 | 70 | 0 | 0.0 | 6.0 | 0.00 | 2.51 | 2.33 | 97 | 1015.0 |
| 20260507155055 | 70 | 0 | 1.0 | 6.0 | 0.00 | 2.51 | 2.33 | 97 | 1014.9 |
| 20260507154604 | 70 | 293 | 2.0 | 6.0 | 0.00 | 2.51 | 2.33 | 97 | 1014.9 |
| 20260507154056 | 70 | 245 | 1.0 | 4.0 | 0.00 | 2.51 | 2.33 | 97 | 1014.9 |
| 20260507153558 | 70 | 200 | 0.0 | 4.0 | 0.00 | 2.51 | 2.33 | 97 | 1014.9 |
| 20260507153102 | 70 | 271 | 2.0 | 4.0 | 0.00 | 2.51 | 2.33 | 97 | 1015.0 |
| 20260507152558 | 70 | 232 | 1.0 | 3.0 | 0.00 | 2.51 | 2.33 | 97 | 1014.9 |
| 20260507152057 | 70 | 0 | 0.0 | 4.0 | 0.01 | 2.51 | 2.33 | 97 | 1014.7 |
| 20260507151557 | 70 | 241 | 1.0 | 4.0 | 0.01 | 2.51 | 2.33 | 97 | 1014.8 |
| 20260507151058 | 70 | 237 | 2.0 | 4.0 | 0.01 | 2.51 | 2.33 | 97 | 1014.7 |
| 20260507150558 | 70 | 200 | 0.0 | 5.0 | 0.01 | 2.51 | 2.33 | 97 | 1014.6 |
| 20260507150056 | 70 | 147 | 0.0 | 5.0 | 0.01 | 2.51 | 2.33 | 97 | 1014.2 |
| 20260507145558 | 70 | 226 | 1.0 | 5.0 | 0.01 | 2.51 | 2.33 | 97 | 1014.6 |
| 20260507145057 | 70 | 265 | 1.0 | 3.0 | 0.01 | 2.51 | 2.33 | 97 | 1014.2 |
| 20260507144556 | 70 | 267 | 1.0 | 4.0 | 0.02 | 2.51 | 2.33 | 97 | 1014.3 |
| 20260507144056 | 70 | 218 | 1.0 | 4.0 | 0.02 | 2.51 | 2.33 | 97 | 1014.0 |
| 20260507143555 | 70 | 248 | 0.0 | 3.0 | 0.02 | 2.51 | 2.33 | 97 | 1014.2 |
| 20260507143058 | 70 | 235 | 1.0 | 5.0 | 0.02 | 2.51 | 2.33 | 97 | 1014.1 |
| 20260507142555 | 70 | 0 | 2.0 | 5.0 | 0.02 | 2.51 | 2.33 | 97 | 1014.3 |
| 20260507142055 | 70 | 217 | 0.0 | 7.0 | 0.01 | 2.50 | 2.33 | 97 | 1014.2 |
| 20260507141557 | 70 | 0 | 1.0 | 7.0 | 0.01 | 2.50 | 2.33 | 97 | 1013.8 |
| 20260507141058 | 70 | 136 | 1.0 | 4.0 | 0.01 | 2.50 | 2.33 | 97 | 1013.6 |
| 20260507140557 | 70 | 229 | 1.0 | 4.0 | 0.01 | 2.50 | 2.33 | 97 | 1013.8 |
| 20260507140100 | 70 | 176 | 0.0 | 7.0 | 0.01 | 2.50 | 2.33 | 97 | 1013.9 |
| 20260507135556 | 70 | 214 | 1.0 | 7.0 | 0.01 | 2.50 | 2.33 | 97 | 1013.8 |
| 20260507135058 | 70 | 281 | 0.0 | 2.0 | 0.01 | 2.50 | 2.33 | 97 | 1013.7 |
| 20260507134557 | 69 | 206 | 0.0 | 2.0 | 0.00 | 2.49 | 2.32 | 97 | 1013.8 |
| 20260507134057 | 69 | 0 | 0.0 | 2.0 | 0.01 | 2.49 | 2.32 | 97 | 1013.6 |
| 20260507133557 | 69 | 212 | 0.0 | 4.0 | 0.01 | 2.49 | 2.32 | 97 | 1013.9 |
| 20260507133106 | 69 | 238 | 1.0 | 4.0 | 0.01 | 2.49 | 2.32 | 97 | 1013.9 |
| 20260507132555 | 69 | 209 | 2.0 | 4.0 | 0.01 | 2.49 | 2.32 | 97 | 1014.1 |
| 20260507132055 | 69 | 256 | 1.0 | 5.0 | 0.01 | 2.49 | 2.32 | 97 | 1013.8 |
| 20260507131603 | 69 | 193 | 1.0 | 5.0 | 0.01 | 2.49 | 2.32 | 97 | 1014.0 |
| 20260507131058 | 69 | 214 | 1.0 | 3.0 | 0.01 | 2.49 | 2.32 | 97 | 1014.0 |
| 20260507130558 | 69 | 247 | 1.0 | 4.0 | 0.01 | 2.49 | 2.32 | 97 | 1014.0 |
| 20260507130109 | 69 | 147 | 1.0 | 4.0 | 0.01 | 2.49 | 2.32 | 97 | 1013.7 |
| 20260507125555 | 69 | 187 | 0.0 | 5.0 | 0.01 | 2.49 | 2.32 | 97 | 1013.8 |
| 20260507125056 | 69 | 145 | 1.0 | 5.0 | 0.01 | 2.49 | 2.32 | 97 | 1013.5 |
| 20260507124557 | 69 | 228 | 0.0 | 3.0 | 0.10 | 2.49 | 2.32 | 97 | 1013.6 |
| 20260507124059 | 69 | 205 | 1.0 | 4.0 | 0.15 | 2.48 | 2.31 | 97 | 1013.6 |
| 20260507123558 | 69 | 214 | 1.0 | 7.0 | 0.21 | 2.48 | 2.31 | 97 | 1013.8 |
| 20260507123059 | 69 | 262 | 1.0 | 7.0 | 0.24 | 2.48 | 2.31 | 97 | 1013.7 |
| 20260507122557 | 69 | 269 | 2.0 | 9.0 | 0.25 | 2.48 | 2.31 | 97 | 1013.6 |
| 20260507122059 | 69 | 255 | 2.0 | 10.0 | 0.31 | 2.48 | 2.31 | 97 | 1013.7 |
| 20260507121607 | 69 | 266 | 2.0 | 10.0 | 0.38 | 2.48 | 2.31 | 97 | 1013.5 |
| 20260507121058 | 69 | 203 | 2.0 | 9.0 | 0.51 | 2.48 | 2.31 | 97 | 1013.3 |
| 20260507120604 | 69 | 168 | 3.0 | 9.0 | 0.64 | 2.48 | 2.31 | 97 | 1013.2 |
| 20260507115556 | 69 | 274 | 4.0 | 12.0 | 1.12 | 2.48 | 2.31 | 97 | 1013.0 |
| 20260507115055 | 69 | 256 | 4.0 | 12.0 | 1.60 | 2.47 | 2.30 | 97 | 1012.6 |
| 20260507114615 | 69 | 255 | 3.0 | 8.0 | 1.90 | 2.39 | 2.22 | 97 | 1013.4 |
| 20260507114100 | 69 | 236 | 3.0 | 9.0 | 2.01 | 2.33 | 2.16 | 97 | 1013.1 |
| 20260507113559 | 69 | 192 | 2.0 | 9.0 | 1.96 | 2.27 | 2.09 | 97 | 1012.3 |
| 20260507113055 | 69 | 267 | 3.0 | 11.0 | 1.94 | 2.24 | 2.07 | 97 | 1012.9 |
| 20260507112600 | 69 | 276 | 3.0 | 11.0 | 1.93 | 2.23 | 2.06 | 97 | 1012.8 |
| 20260507112101 | 69 | 163 | 2.0 | 9.0 | 1.87 | 2.17 | 2.00 | 97 | 1012.5 |
| 20260507111604 | 69 | 238 | 3.0 | 10.0 | 1.80 | 2.09 | 1.93 | 97 | 1013.0 |
| 20260507111058 | 70 | 193 | 4.0 | 11.0 | 1.67 | 1.97 | 1.80 | 97 | 1012.6 |
| 20260507110600 | 69 | 242 | 5.0 | 11.0 | 1.54 | 1.84 | 1.67 | 97 | 1012.8 |
| 20260507110109 | 69 | 218 | 5.0 | 11.0 | 1.42 | 1.72 | 1.55 | 99 | 1011.8 |
| 20260507105557 | 71 | 328 | 3.0 | 7.0 | 1.04 | 1.35 | 1.17 | 97 | 1013.4 |
| 20260507105058 | 72 | 302 | 0.0 | 3.0 | 0.55 | 0.85 | 0.68 | 97 | 1013.6 |
| 20260507104557 | 72 | 53 | 2.0 | 3.0 | 0.19 | 0.49 | 0.32 | 97 | 1012.7 |
| 20260507104059 | 72 | 249 | 0.0 | 3.0 | 0.02 | 0.32 | 0.15 | 97 | 1012.5 |
| 20260507103557 | 72 | 0 | 0.0 | 3.0 | 0.01 | 0.31 | 0.14 | 97 | 1011.7 |
| 20260507103057 | 72 | 0 | 1.0 | 7.0 | 0.00 | 0.30 | 0.13 | 97 | 1012.1 |
| 20260507102558 | 72 | 254 | 1.0 | 7.0 | 0.00 | 0.30 | 0.13 | 97 | 1011.9 |
| 20260507102057 | 72 | 145 | 3.0 | 7.0 | 0.00 | 0.30 | 0.13 | 97 | 1011.3 |
| 20260507101605 | 71 | 144 | 1.0 | 5.0 | 0.00 | 0.30 | 0.13 | 97 | 1011.5 |
| 20260507101055 | 71 | 143 | 1.0 | 4.0 | 0.00 | 0.30 | 0.13 | 97 | 1011.4 |
| 20260507100555 | 71 | 160 | 0.0 | 3.0 | 0.00 | 0.30 | 0.13 | 97 | 1011.4 |
| 20260507100055 | 71 | 137 | 1.0 | 3.0 | 0.00 | 0.30 | 0.13 | 97 | 1011.5 |
| 20260507095555 | 71 | 0 | 0.0 | 1.0 | 0.00 | 0.30 | 0.13 | 97 | 1011.6 |
| 20260507095059 | 71 | 0 | 0.0 | 2.0 | 0.00 | 0.30 | 0.13 | 97 | 1011.5 |
| 20260507094558 | 71 | 0 | 0.0 | 3.0 | 0.00 | 0.30 | 0.13 | 97 | 1011.5 |
| 20260507094058 | 71 | 145 | 0.0 | 3.0 | 0.00 | 0.30 | 0.13 | 97 | 1011.4 |
| 20260507093555 | 71 | 139 | 0.0 | 1.0 | 0.00 | 0.30 | 0.13 | 97 | 1011.3 |
| 20260507093100 | 71 | 0 | 0.0 | 0.0 | 0.02 | 0.30 | 0.13 | 97 | 1011.8 |
| 20260507092601 | 71 | 0 | 0.0 | 1.0 | 0.06 | 0.30 | 0.13 | 97 | 1012.2 |
| 20260507092057 | 71 | 0 | 0.0 | 1.0 | 0.12 | 0.30 | 0.13 | 97 | 1012.3 |
| 20260507091559 | 72 | 266 | 0.0 | 1.0 | 0.12 | 0.30 | 0.13 | 97 | 1012.5 |
| 20260507091057 | 72 | 0 | 0.0 | 4.0 | 0.12 | 0.30 | 0.13 | 97 | 1012.1 |
| 20260507090559 | 72 | 217 | 2.0 | 4.0 | 0.12 | 0.30 | 0.13 | 97 | 1011.8 |
| 20260507090058 | 72 | 160 | 1.0 | 9.0 | 0.12 | 0.30 | 0.13 | 97 | 1012.0 |
| 20260507085558 | 72 | 229 | 0.0 | 9.0 | 0.12 | 0.30 | 0.13 | 97 | 1012.0 |
| 20260507085056 | 72 | 124 | 2.0 | 9.0 | 0.13 | 0.30 | 0.13 | 97 | 1012.1 |
| 20260507084559 | 72 | 219 | 1.0 | 5.0 | 0.13 | 0.30 | 0.13 | 97 | 1012.1 |
| 20260507084101 | 72 | 0 | 2.0 | 5.0 | 0.13 | 0.30 | 0.13 | 97 | 1012.1 |
| 20260507083558 | 72 | 156 | 1.0 | 9.0 | 0.13 | 0.30 | 0.13 | 97 | 1012.1 |
| 20260507083056 | 72 | 210 | 4.0 | 9.0 | 0.11 | 0.28 | 0.11 | 97 | 1011.8 |
| 20260507082556 | 72 | 147 | 2.0 | 5.0 | 0.07 | 0.24 | 0.07 | 97 | 1012.5 |
| 20260507082101 | 72 | 249 | 2.0 | 5.0 | 0.01 | 0.18 | 0.01 | 97 | 1013.2 |
| 20260507081605 | 72 | 231 | 2.0 | 6.0 | 0.01 | 0.18 | 0.01 | 97 | 1012.2 |
| 20260507081100 | 72 | 143 | 3.0 | 6.0 | 0.01 | 0.18 | 0.01 | 97 | 1012.1 |
| 20260507080559 | 72 | 141 | 2.0 | 4.0 | 0.01 | 0.18 | 0.01 | 97 | 1012.0 |
| 20260507075558 | 73 | 159 | 1.0 | 2.0 | 0.01 | 0.18 | 0.01 | 97 | 1012.5 |
| 20260507075058 | 73 | 0 | 0.0 | 1.0 | 0.00 | 0.17 | 0.00 | 96 | 1012.6 |
| 20260507074609 | 73 | 0 | 0.0 | 1.0 | 0.00 | 0.17 | 0.00 | 96 | 1012.5 |
| 20260507074059 | 73 | 0 | 0.0 | 1.0 | 0.00 | 0.17 | 0.00 | 96 | 1012.5 |
| 20260507073555 | 73 | 0 | 0.0 | 2.0 | 0.00 | 0.17 | 0.00 | 95 | 1012.8 |
| 20260507073057 | 73 | 0 | 0.0 | 2.0 | 0.00 | 0.17 | 0.00 | 95 | 1013.2 |
| 20260507072555 | 73 | 247 | 0.0 | 1.0 | 0.00 | 0.17 | 0.00 | 95 | 1013.4 |
| 20260507072100 | 73 | 0 | 0.0 | 3.0 | 0.00 | 0.17 | 0.00 | 95 | 1013.5 |
| 20260507071559 | 73 | 224 | 0.0 | 3.0 | 0.00 | 0.17 | 0.00 | 95 | 1013.4 |
| 20260507071058 | 73 | 253 | 0.0 | 3.0 | 0.00 | 0.17 | 0.00 | 95 | 1013.2 |